sat.trackr.live / text

‹ back to catalog

STARLINK-36748

NORAD 67693 · 2026-025A

PAYLOAD ACTIVE UNKNOWN

§ Identity

Operator
Country
US
Launch date
2026-02-07
Launch site
AFWTR
Launch vehicle
Mass (kg)
RCS (m²)

Purposes: comms

External: N2YO · Heavens-Above · Gunter

§ Orbital elements

Epoch: 2026-09-19T14:42:38.453184Z

Period
93.91 min
Inclination
97.2871°
Eccentricity
0.0001782
Mean motion
15.33441028 rev/d
Perigee alt
464.3 km
Apogee alt
466.8 km
Semi-major
6,843.7 km
B*
5.4216e-4
RAAN
12.5818°
Arg perigee
90.6197°
Mean anomaly
269.5250°
Rev number
3,573

§ Raw data

STARLINK-367481 67693U 26025A   26262.61294506  .00017467  00000+0  54216-3 0  99922 67693  97.2871  12.5818 0001782  90.6197 269.5250 15.33441028 35730

JSON: /api/v1/satellites/67693 · /tle

For live sub-satellite position, see the globe view (requires WebGL).

§ Visibility from observer

Set your observer location to see the next 7 days of passes ≥ 10°. The values pass through the URL so the page stays shareable.

No JS? Fill the form by hand. The geolocation button needs JavaScript.